Torna al catalogo

LEMUR 2 FURIAUS

AttivoScienzaSSO
NORAD 42840·PAYLOAD·🇺🇸 United States

Lanciato Jul 14, 2017 da Baikonur Cosmodrome

Loading…

Prossimi Passaggi (prossime 24 ore)

TLE

AggiornatoSource: Space-Track

Epoca: Sep 14, 2026, 10:56 UTC

1 42840U 17042R   26257.45615886  .00014434  00000-0  45534-3 0  9997
2 42840  97.3808  75.6284 0007939 102.2610 257.9521 15.32939575501878

Traccia LEMUR 2 FURIAUS in tempo reale con AllMySat

Download on the App Store